| time (UTC) | temp C | wind direction | speed KPH | gust KPH | rain 1hr cm | rain 24hr cm | rain mn cm | humidity % | barometer mb |
| 20260510071635 | 10 | 214 | 4.8 | 11.3 | 0.00 | 0.13 | 0.00 | 91 | 1005.9 |
| 20260510071505 | 10 | 201 | 3.2 | 11.3 | 0.00 | 0.13 | 0.00 | 91 | 1005.8 |
| 20260510070632 | 10 | 236 | 4.8 | 12.9 | 0.00 | 0.13 | 0.00 | 91 | 1005.8 |
| 20260510070132 | 10 | 208 | 4.8 | 12.9 | 0.00 | 0.13 | 0.00 | 91 | 1005.9 |
| 20260510070019 | 10 | 215 | 6.4 | 14.5 | 0.00 | 0.13 | 0.00 | 91 | 1005.6 |
| 20260510065130 | 10 | 147 | 6.4 | 16.1 | 0.00 | 0.13 | 0.00 | 91 | 1005.6 |
| 20260510065017 | 10 | 164 | 6.4 | 16.1 | 0.00 | 0.13 | 0.00 | 91 | 1005.7 |
| 20260510064502 | 10 | 196 | 6.4 | 16.1 | 0.00 | 0.13 | 0.00 | 91 | 1005.8 |
| 20260510063629 | 10 | 200 | 6.4 | 16.1 | 0.00 | 0.13 | 0.00 | 92 | 1005.7 |
| 20260510063131 | 10 | 189 | 4.8 | 12.9 | 0.00 | 0.13 | 0.00 | 92 | 1005.7 |
| 20260510062630 | 10 | 193 | 4.8 | 12.9 | 0.00 | 0.13 | 0.00 | 91 | 1005.6 |
| 20260510062411 | 10 | 296 | 4.8 | 14.5 | 0.00 | 0.13 | 0.00 | 91 | 1005.7 |
| 20260510062307 | 10 | 215 | 4.8 | 14.5 | 0.00 | 0.13 | 0.00 | 91 | 1005.6 |
| 20260510061128 | 10 | 198 | 6.4 | 16.1 | 0.00 | 0.13 | 0.00 | 91 | 1005.6 |
| 20260510060632 | 10 | 205 | 6.4 | 16.1 | 0.00 | 0.13 | 0.00 | 91 | 1005.6 |
| 20260510060217 | 10 | 193 | 6.4 | 17.7 | 0.00 | 0.13 | 0.00 | 91 | 1005.5 |
| 20260510060200 | 10 | 208 | 6.4 | 14.5 | 0.00 | 0.13 | 0.00 | 90 | 1005.6 |
| 20260510054634 | 10 | 210 | 6.4 | 17.7 | 0.00 | 0.13 | 0.00 | 90 | 1005.7 |
| 20260510054438 | 11 | 197 | 8.0 | 24.1 | 0.00 | 0.13 | 0.00 | 90 | 1005.3 |
| 20260510054327 | 10 | 205 | 8.0 | 24.1 | 0.00 | 0.13 | 0.00 | 90 | 1005.5 |
| 20260510053129 | 11 | 223 | 6.4 | 17.7 | 0.00 | 0.13 | 0.00 | 90 | 1005.2 |
| 20260510053003 | 11 | 254 | 6.4 | 17.7 | 0.00 | 0.13 | 0.00 | 90 | 1005.2 |
| 20260510052356 | 11 | 182 | 8.0 | 22.5 | 0.00 | 0.13 | 0.00 | 90 | 1005.1 |
| 20260510052255 | 11 | 211 | 8.0 | 17.7 | 0.00 | 0.13 | 0.00 | 90 | 1005.1 |
| 20260510051453 | 11 | 238 | 9.7 | 22.5 | 0.00 | 0.13 | 0.00 | 89 | 1005.0 |
| 20260510050628 | 11 | 215 | 9.7 | 25.7 | 0.00 | 0.13 | 0.00 | 89 | 1004.9 |
| 20260510050538 | 11 | 192 | 11.3 | 25.7 | 0.00 | 0.13 | 0.00 | 89 | 1004.8 |
| 20260510045629 | 11 | 191 | 11.3 | 20.9 | 0.00 | 0.13 | 0.00 | 89 | 1004.7 |
| 20260510045128 | 11 | 183 | 11.3 | 30.6 | 0.00 | 0.13 | 0.00 | 88 | 1004.7 |
| 20260510044629 | 11 | 199 | 11.3 | 30.6 | 0.00 | 0.13 | 0.00 | 88 | 1004.7 |
| 20260510044128 | 11 | 198 | 11.3 | 29.0 | 0.00 | 0.13 | 0.00 | 88 | 1004.6 |
| 20260510043629 | 11 | 212 | 11.3 | 29.0 | 0.00 | 0.13 | 0.00 | 88 | 1004.6 |
| 20260510043129 | 11 | 165 | 9.7 | 24.1 | 0.00 | 0.13 | 0.00 | 88 | 1004.5 |
| 20260510042631 | 11 | 185 | 9.7 | 25.7 | 0.00 | 0.13 | 0.00 | 88 | 1004.5 |
| 20260510042130 | 11 | 202 | 11.3 | 29.0 | 0.00 | 0.13 | 0.00 | 88 | 1004.0 |
| 20260510041628 | 11 | 198 | 11.3 | 29.0 | 0.00 | 0.13 | 0.00 | 88 | 1004.3 |
| 20260510041128 | 11 | 194 | 9.7 | 27.4 | 0.00 | 0.13 | 0.00 | 89 | 1004.2 |
| 20260510040628 | 12 | 215 | 9.7 | 27.4 | 0.03 | 0.13 | 0.00 | 89 | 1004.2 |
| 20260510040128 | 12 | 188 | 9.7 | 24.1 | 0.05 | 0.13 | 0.00 | 89 | 1004.3 |
| 20260510035626 | 12 | 246 | 11.3 | 22.5 | 0.08 | 0.13 | 0.08 | 89 | 1004.2 |
| 20260510035127 | 12 | 219 | 12.9 | 25.7 | 0.13 | 0.13 | 0.08 | 89 | 1004.2 |
| 20260510034627 | 12 | 201 | 11.3 | 30.6 | 0.13 | 0.13 | 0.08 | 89 | 1004.2 |
| 20260510034129 | 11 | 209 | 9.7 | 30.6 | 0.13 | 0.13 | 0.08 | 89 | 1004.1 |
| 20260510033653 | 11 | 126 | 8.0 | 19.3 | 0.13 | 0.13 | 0.08 | 89 | 1004.2 |
| 20260510033123 | 11 | 192 | 9.7 | 22.5 | 0.13 | 0.13 | 0.08 | 89 | 1004.1 |
| 20260510032623 | 11 | 186 | 9.7 | 22.5 | 0.13 | 0.13 | 0.08 | 88 | 1004.0 |
| 20260510032123 | 11 | 189 | 9.7 | 20.9 | 0.13 | 0.13 | 0.08 | 88 | 1004.0 |
| 20260510031623 | 11 | 179 | 9.7 | 20.9 | 0.13 | 0.13 | 0.08 | 87 | 1004.1 |
| 20260510031123 | 12 | 192 | 9.7 | 22.5 | 0.13 | 0.13 | 0.08 | 86 | 1004.1 |
| 20260510030641 | 12 | 190 | 8.0 | 22.5 | 0.10 | 0.10 | 0.08 | 85 | 1004.1 |
| 20260510030126 | 12 | 182 | 9.7 | 35.4 | 0.08 | 0.08 | 0.08 | 83 | 1004.2 |
| 20260510025627 | 12 | 189 | 11.3 | 35.4 | 0.05 | 0.05 | 0.00 | 81 | 1004.1 |
| 20260510025129 | 13 | 192 | 11.3 | 27.4 | 0.00 | 0.00 | 0.00 | 79 | 1003.9 |
| 20260510024623 | 13 | 182 | 11.3 | 25.7 | 0.00 | 0.00 | 0.00 | 78 | 1003.7 |
| 20260510024116 | 13 | 168 | 11.3 | 25.7 | 0.00 | 0.00 | 0.00 | 76 | 1003.7 |
| 20260510023630 | 13 | 182 | 11.3 | 22.5 | 0.00 | 0.00 | 0.00 | 76 | 1003.7 |
| 20260510023114 | 13 | 193 | 11.3 | 17.7 | 0.00 | 0.00 | 0.00 | 75 | 1003.7 |
| 20260510022830 | 13 | 184 | 11.3 | 19.3 | 0.00 | 0.00 | 0.00 | 74 | 1003.6 |
| 20260510022736 | 13 | 175 | 11.3 | 17.7 | 0.00 | 0.00 | 0.00 | 75 | 1003.7 |
| 20260510021951 | 13 | 173 | 9.7 | 19.3 | 0.00 | 0.00 | 0.00 | 74 | 1003.6 |
| 20260510021545 | 13 | 159 | 9.7 | 19.3 | 0.00 | 0.00 | 0.00 | 73 | 1003.6 |
| 20260510021537 | 13 | 176 | 9.7 | 19.3 | 0.00 | 0.00 | 0.00 | 73 | 1003.7 |
| 20260510021530 | 13 | 153 | 8.0 | 16.1 | 0.00 | 0.00 | 0.00 | 74 | 1003.3 |
| 20260510021136 | 13 | 179 | 8.0 | 19.3 | 0.00 | 0.00 | 0.00 | 74 | 1003.5 |
| 20260510015112 | 13 | 157 | 9.7 | 22.5 | 0.00 | 0.00 | 0.00 | 73 | 1003.8 |
| 20260510014952 | 13 | 175 | 8.0 | 22.5 | 0.00 | 0.00 | 0.00 | 72 | 1003.9 |
| 20260510014112 | 13 | 148 | 8.0 | 14.5 | 0.00 | 0.00 | 0.00 | 72 | 1004.1 |
| 20260510013607 | 13 | 164 | 8.0 | 14.5 | 0.00 | 0.00 | 0.00 | 71 | 1004.1 |
| 20260510013448 | 13 | 182 | 8.0 | 11.3 | 0.00 | 0.00 | 0.00 | 71 | 1004.2 |
| 20260510012608 | 13 | 135 | 8.0 | 14.5 | 0.00 | 0.00 | 0.00 | 71 | 1004.1 |
| 20260510012501 | 13 | 161 | 8.0 | 14.5 | 0.00 | 0.00 | 0.00 | 71 | 1004.0 |
| 20260510011820 | 14 | 184 | 6.4 | 17.7 | 0.00 | 0.00 | 0.00 | 70 | 1004.0 |
| 20260510011726 | 14 | 184 | 8.0 | 12.9 | 0.00 | 0.00 | 0.00 | 71 | 1004.0 |
| 20260510010605 | 14 | 155 | 6.4 | 17.7 | 0.00 | 0.00 | 0.00 | 70 | 1003.9 |
| 20260510010106 | 14 | 0 | 6.4 | 11.3 | 0.00 | 0.00 | 0.00 | 70 | 1003.9 |
| 20260510005602 | 14 | 175 | 6.4 | 11.3 | 0.00 | 0.00 | 0.00 | 70 | 1004.0 |
| 20260510005102 | 14 | 173 | 6.4 | 11.3 | 0.00 | 0.00 | 0.00 | 70 | 1004.1 |
| 20260510004940 | 14 | 184 | 6.4 | 12.9 | 0.00 | 0.00 | 0.00 | 70 | 1004.1 |
| 20260510004104 | 14 | 180 | 6.4 | 12.9 | 0.00 | 0.00 | 0.00 | 70 | 1004.1 |
| 20260510003945 | 14 | 176 | 6.4 | 14.5 | 0.00 | 0.00 | 0.00 | 69 | 1004.1 |
| 20260510003103 | 14 | 175 | 6.4 | 14.5 | 0.00 | 0.00 | 0.00 | 69 | 1003.9 |
| 20260510002604 | 14 | 182 | 6.4 | 11.3 | 0.00 | 0.00 | 0.00 | 68 | 1004.1 |
| 20260510002107 | 15 | 180 | 6.4 | 11.3 | 0.00 | 0.00 | 0.00 | 68 | 1004.3 |
| 20260510001605 | 15 | 248 | 6.4 | 19.3 | 0.00 | 0.00 | 0.00 | 67 | 1004.3 |
| 20260510001446 | 15 | 182 | 8.0 | 19.3 | 0.00 | 0.00 | 0.00 | 67 | 1004.4 |
| 20260510000605 | 15 | 187 | 6.4 | 17.7 | 0.00 | 0.00 | 0.00 | 66 | 1004.5 |
| 20260510000105 | 15 | 187 | 6.4 | 11.3 | 0.00 | 0.00 | 0.00 | 66 | 1004.5 |
| 20260509235602 | 15 | 176 | 6.4 | 14.5 | 0.00 | 0.00 | 0.00 | 66 | 1004.6 |
| 20260509235102 | 15 | 184 | 6.4 | 24.1 | 0.00 | 0.00 | 0.00 | 65 | 1004.7 |
| 20260509234936 | 15 | 178 | 8.0 | 24.1 | 0.00 | 0.00 | 0.00 | 65 | 1004.8 |
| 20260509234327 | 16 | 191 | 9.7 | 25.7 | 0.00 | 0.00 | 0.00 | 63 | 1004.8 |
| 20260509234227 | 16 | 211 | 9.7 | 25.7 | 0.00 | 0.00 | 0.00 | 64 | 1004.8 |
| 20260509233531 | 16 | 208 | 9.7 | 22.5 | 0.00 | 0.00 | 0.00 | 63 | 1004.8 |
| 20260509232558 | 16 | 202 | 11.3 | 27.4 | 0.00 | 0.00 | 0.00 | 62 | 1004.7 |
| 20260509232056 | 16 | 211 | 11.3 | 27.4 | 0.00 | 0.00 | 0.00 | 61 | 1004.7 |
| 20260509231555 | 16 | 208 | 11.3 | 37.0 | 0.00 | 0.00 | 0.00 | 61 | 1004.6 |
| 20260509231057 | 16 | 180 | 11.3 | 37.0 | 0.00 | 0.00 | 0.00 | 60 | 1004.5 |
| 20260509230556 | 16 | 209 | 11.3 | 27.4 | 0.00 | 0.00 | 0.00 | 59 | 1004.4 |
| 20260509230055 | 16 | 173 | 11.3 | 30.6 | 0.00 | 0.00 | 0.00 | 59 | 1004.4 |
| 20260509225554 | 17 | 211 | 11.3 | 30.6 | 0.00 | 0.00 | 0.00 | 58 | 1004.3 |
| 20260509225055 | 17 | 196 | 9.7 | 27.4 | 0.00 | 0.00 | 0.00 | 57 | 1004.3 |
| 20260509224554 | 17 | 200 | 11.3 | 27.4 | 0.00 | 0.00 | 0.00 | 56 | 1004.2 |
| 20260509224054 | 17 | 224 | 11.3 | 27.4 | 0.00 | 0.00 | 0.00 | 55 | 1004.0 |
| 20260509223933 | 17 | 206 | 9.7 | 27.4 | 0.00 | 0.00 | 0.00 | 54 | 1004.0 |
| 20260509223054 | 17 | 189 | 11.3 | 35.4 | 0.00 | 0.00 | 0.00 | 53 | 1004.0 |
| 20260509222925 | 17 | 212 | 11.3 | 35.4 | 0.00 | 0.00 | 0.00 | 53 | 1004.0 |
| 20260509222431 | 18 | 182 | 9.7 | 30.6 | 0.00 | 0.00 | 0.00 | 51 | 1003.9 |
| 20260509221550 | 18 | 196 | 11.3 | 30.6 | 0.00 | 0.00 | 0.00 | 50 | 1003.9 |
| 20260509221052 | 18 | 177 | 9.7 | 22.5 | 0.00 | 0.00 | 0.00 | 48 | 1003.9 |
| 20260509220924 | 18 | 212 | 8.0 | 22.5 | 0.00 | 0.00 | 0.00 | 46 | 1004.0 |
| 20260509220045 | 18 | 175 | 8.0 | 17.7 | 0.00 | 0.00 | 0.00 | 46 | 1004.1 |
| 20260509215545 | 18 | 178 | 8.0 | 17.7 | 0.00 | 0.00 | 0.00 | 45 | 1004.1 |
| 20260509215045 | 18 | 201 | 9.7 | 22.5 | 0.00 | 0.00 | 0.00 | 43 | 1004.1 |
| 20260509214545 | 19 | 192 | 9.7 | 22.5 | 0.00 | 0.00 | 0.00 | 43 | 1004.1 |
| 20260509214043 | 19 | 189 | 9.7 | 24.1 | 0.00 | 0.00 | 0.00 | 44 | 1004.1 |
| 20260509213544 | 19 | 187 | 9.7 | 29.0 | 0.00 | 0.00 | 0.00 | 41 | 1004.2 |
| 20260509213043 | 19 | 207 | 11.3 | 29.0 | 0.00 | 0.00 | 0.00 | 41 | 1004.2 |
| 20260509212544 | 20 | 175 | 11.3 | 24.1 | 0.00 | 0.00 | 0.00 | 41 | 1004.2 |
| 20260509212044 | 20 | 202 | 9.7 | 22.5 | 0.00 | 0.00 | 0.00 | 44 | 1004.3 |
| 20260509211537 | 19 | 157 | 9.7 | 19.3 | 0.00 | 0.00 | 0.00 | 45 | 1004.2 |
| 20260509211435 | 19 | 183 | 9.7 | 20.9 | 0.00 | 0.00 | 0.00 | 44 | 1004.4 |
| 20260509210540 | 19 | 191 | 9.7 | 20.9 | 0.00 | 0.00 | 0.00 | 42 | 1004.4 |
| 20260509210500 | 19 | 189 | 9.7 | 19.3 | 0.00 | 0.00 | 0.00 | 46 | 1004.4 |
| 20260509205535 | 19 | 167 | 9.7 | 19.3 | 0.00 | 0.00 | 0.00 | 42 | 1004.3 |
| 20260509205035 | 20 | 190 | 11.3 | 22.5 | 0.00 | 0.00 | 0.00 | 42 | 1004.3 |
| 20260509204534 | 20 | 178 | 12.9 | 22.5 | 0.00 | 0.00 | 0.00 | 42 | 1004.4 |
| 20260509204034 | 20 | 175 | 11.3 | 20.9 | 0.00 | 0.00 | 0.00 | 42 | 1004.4 |
| 20260509203536 | 20 | 152 | 9.7 | 20.9 | 0.00 | 0.00 | 0.00 | 44 | 1004.3 |
| 20260509203037 | 20 | 227 | 11.3 | 20.9 | 0.00 | 0.00 | 0.00 | 44 | 1004.4 |
| 20260509202530 | 18 | 198 | 11.3 | 20.9 | 0.00 | 0.00 | 0.00 | 45 | 1004.4 |
| 20260509202032 | 18 | 140 | 11.3 | 24.1 | 0.00 | 0.00 | 0.00 | 41 | 1004.5 |
| 20260509201530 | 20 | 159 | 11.3 | 24.1 | 0.00 | 0.00 | 0.00 | 42 | 1004.6 |
| 20260509201029 | 20 | 209 | 12.9 | 24.1 | 0.00 | 0.00 | 0.00 | 39 | 1004.6 |
| 20260509200531 | 20 | 190 | 12.9 | 27.4 | 0.00 | 0.00 | 0.00 | 42 | 1004.5 |
| 20260509200059 | 20 | 173 | 9.7 | 27.4 | 0.00 | 0.00 | 0.00 | 38 | 1004.6 |
| 20260509195528 | 20 | 174 | 8.0 | 24.1 | 0.00 | 0.00 | 0.00 | 37 | 1004.7 |
| 20260509195029 | 20 | 173 | 8.0 | 24.1 | 0.00 | 0.00 | 0.00 | 37 | 1004.7 |
| 20260509194531 | 20 | 201 | 11.3 | 30.6 | 0.00 | 0.00 | 0.00 | 36 | 1004.8 |
| 20260509194359 | 20 | 175 | 12.9 | 30.6 | 0.00 | 0.00 | 0.00 | 38 | 1004.9 |
| 20260509193911 | 21 | 191 | 11.3 | 22.5 | 0.00 | 0.00 | 0.00 | 37 | 1005.0 |
| 20260509193045 | 21 | 188 | 9.7 | 22.5 | 0.00 | 0.00 | 0.00 | 34 | 1004.8 |
| 20260509192529 | 20 | 171 | 11.3 | 22.5 | 0.00 | 0.00 | 0.00 | 34 | 1004.9 |
| 20260509192030 | 20 | 184 | 11.3 | 24.1 | 0.00 | 0.00 | 0.00 | 34 | 1005.1 |
| 20260509191528 | 21 | 136 | 11.3 | 24.1 | 0.00 | 0.00 | 0.00 | 31 | 1005.2 |
| 20260509191029 | 21 | 194 | 12.9 | 25.7 | 0.00 | 0.00 | 0.00 | 30 | 1005.3 |
| 20260509190530 | 21 | 177 | 11.3 | 25.7 | 0.00 | 0.00 | 0.00 | 32 | 1005.3 |
| 20260509190517 | 20 | 147 | 8.0 | 16.1 | 0.00 | 0.00 | 0.00 | 33 | 1005.5 |
| 20260509190104 | 21 | 188 | 8.0 | 19.3 | 0.00 | 0.00 | 0.00 | 32 | 1005.4 |
| 20260509185156 | 20 | 188 | 9.7 | 22.5 | 0.00 | 0.00 | 0.00 | 31 | 1005.7 |
| 20260509184029 | 20 | 233 | 8.0 | 25.7 | 0.00 | 0.00 | 0.00 | 35 | 1005.7 |
| 20260509183530 | 20 | 242 | 6.4 | 25.7 | 0.00 | 0.00 | 0.00 | 33 | 1005.8 |
| 20260509183034 | 20 | 167 | 6.4 | 16.1 | 0.00 | 0.00 | 0.00 | 31 | 1005.8 |
| 20260509182530 | 20 | 136 | 11.3 | 22.5 | 0.00 | 0.00 | 0.00 | 31 | 1005.9 |
| 20260509182029 | 20 | 157 | 11.3 | 22.5 | 0.00 | 0.00 | 0.00 | 30 | 1006.1 |
| 20260509181532 | 20 | 192 | 8.0 | 22.5 | 0.00 | 0.00 | 0.00 | 33 | 1006.1 |
| 20260509181414 | 20 | 160 | 8.0 | 22.5 | 0.00 | 0.00 | 0.00 | 29 | 1006.1 |
| 20260509180531 | 20 | 103 | 9.7 | 22.5 | 0.00 | 0.00 | 0.00 | 30 | 1006.2 |
| 20260509180036 | 20 | 169 | 9.7 | 25.7 | 0.00 | 0.00 | 0.00 | 30 | 1006.2 |
| 20260509175535 | 20 | 156 | 8.0 | 25.7 | 0.00 | 0.00 | 0.00 | 34 | 1006.2 |
| 20260509175400 | 20 | 139 | 9.7 | 19.3 | 0.00 | 0.00 | 0.00 | 31 | 1006.3 |
| 20260509174534 | 20 | 166 | 11.3 | 22.5 | 0.00 | 0.00 | 0.00 | 34 | 1006.5 |
| 20260509174402 | 20 | 157 | 9.7 | 22.5 | 0.00 | 0.00 | 0.00 | 34 | 1006.5 |
| 20260509173533 | 20 | 178 | 6.4 | 24.1 | 0.00 | 0.00 | 0.00 | 31 | 1006.6 |
| 20260509173031 | 20 | 177 | 8.0 | 24.1 | 0.00 | 0.00 | 0.00 | 32 | 1006.7 |
| 20260509172739 | 19 | 144 | 8.0 | 19.3 | 0.00 | 0.00 | 0.00 | 38 | 1006.9 |
| 20260509172649 | 20 | 180 | 8.0 | 16.1 | 0.00 | 0.00 | 0.00 | 37 | 1006.7 |
| 20260509171530 | 19 | 153 | 9.7 | 20.9 | 0.00 | 0.00 | 0.00 | 29 | 1006.9 |
| 20260509171030 | 19 | 190 | 9.7 | 20.9 | 0.00 | 0.00 | 0.00 | 31 | 1007.0 |
| 20260509170530 | 20 | 188 | 8.0 | 16.1 | 0.00 | 0.00 | 0.00 | 35 | 1007.1 |
| 20260509170400 | 19 | 183 | 8.0 | 25.7 | 0.00 | 0.00 | 0.00 | 33 | 1007.2 |
| 20260509165901 | 18 | 200 | 9.7 | 25.7 | 0.00 | 0.00 | 0.00 | 35 | 1007.2 |
| 20260509165031 | 19 | 193 | 9.7 | 19.3 | 0.00 | 0.00 | 0.00 | 34 | 1007.3 |
| 20260509164530 | 19 | 178 | 11.3 | 22.5 | 0.00 | 0.00 | 0.00 | 37 | 1007.5 |
| 20260509164031 | 19 | 171 | 9.7 | 22.5 | 0.00 | 0.00 | 0.00 | 35 | 1007.5 |
| 20260509163530 | 19 | 153 | 8.0 | 19.3 | 0.00 | 0.00 | 0.00 | 32 | 1007.6 |
| 20260509163031 | 18 | 160 | 8.0 | 22.5 | 0.00 | 0.00 | 0.00 | 34 | 1007.6 |
| 20260509162531 | 18 | 211 | 9.7 | 22.5 | 0.00 | 0.00 | 0.00 | 38 | 1007.8 |
| 20260509162031 | 18 | 173 | 8.0 | 17.7 | 0.00 | 0.00 | 0.00 | 36 | 1007.9 |
| 20260509161534 | 18 | 187 | 9.7 | 24.1 | 0.00 | 0.00 | 0.00 | 34 | 1008.0 |
| 20260509161033 | 18 | 153 | 8.0 | 24.1 | 0.00 | 0.00 | 0.00 | 38 | 1008.1 |
| 20260509160910 | 18 | 167 | 8.0 | 19.3 | 0.00 | 0.00 | 0.00 | 38 | 1008.2 |
| 20260509160033 | 18 | 200 | 9.7 | 19.3 | 0.00 | 0.00 | 0.00 | 37 | 1008.3 |
| 20260509155533 | 18 | 171 | 8.0 | 19.3 | 0.00 | 0.00 | 0.00 | 40 | 1008.5 |
| 20260509155034 | 18 | 196 | 8.0 | 16.1 | 0.00 | 0.00 | 0.00 | 36 | 1008.5 |
| 20260509154533 | 18 | 125 | 8.0 | 17.7 | 0.00 | 0.00 | 0.00 | 35 | 1008.7 |
| 20260509154400 | 18 | 188 | 8.0 | 17.7 | 0.00 | 0.00 | 0.00 | 39 | 1008.7 |
| 20260509153533 | 18 | 177 | 9.7 | 22.5 | 0.00 | 0.00 | 0.00 | 34 | 1008.8 |
| 20260509153032 | 17 | 202 | 11.3 | 24.1 | 0.00 | 0.00 | 0.00 | 39 | 1008.9 |
| 20260509152532 | 17 | 193 | 9.7 | 24.1 | 0.00 | 0.00 | 0.00 | 36 | 1008.9 |
| 20260509152033 | 17 | 200 | 9.7 | 19.3 | 0.00 | 0.00 | 0.00 | 41 | 1009.0 |
| 20260509151532 | 17 | 201 | 11.3 | 22.5 | 0.00 | 0.00 | 0.00 | 39 | 1009.2 |
| 20260509151211 | 17 | 202 | 9.7 | 24.1 | 0.00 | 0.00 | 0.00 | 41 | 1009.3 |
| 20260509151205 | 17 | 192 | 9.7 | 27.4 | 0.00 | 0.00 | 0.00 | 40 | 1009.3 |
| 20260509151126 | 17 | 202 | 11.3 | 27.4 | 0.00 | 0.00 | 0.00 | 38 | 1009.2 |
| 20260509145534 | 17 | 207 | 8.0 | 24.1 | 0.00 | 0.00 | 0.00 | 41 | 1009.3 |
| 20260509145033 | 17 | 177 | 8.0 | 19.3 | 0.00 | 0.00 | 0.00 | 41 | 1009.4 |
| 20260509144538 | 17 | 182 | 9.7 | 30.6 | 0.00 | 0.00 | 0.00 | 44 | 1009.5 |
| 20260509144033 | 17 | 172 | 9.7 | 30.6 | 0.00 | 0.00 | 0.00 | 44 | 1009.5 |
| 20260509143915 | 17 | 157 | 9.7 | 19.3 | 0.00 | 0.00 | 0.00 | 44 | 1009.4 |
| 20260509143026 | 17 | 207 | 8.0 | 19.3 | 0.00 | 0.00 | 0.00 | 44 | 1009.5 |
| 20260509142529 | 16 | 180 | 8.0 | 16.1 | 0.00 | 0.00 | 0.00 | 44 | 1009.6 |
| 20260509142402 | 16 | 190 | 8.0 | 17.7 | 0.00 | 0.00 | 0.00 | 47 | 1009.6 |
| 20260509141526 | 16 | 189 | 9.7 | 19.3 | 0.00 | 0.00 | 0.00 | 45 | 1009.6 |
| 20260509141025 | 16 | 202 | 8.0 | 19.3 | 0.00 | 0.00 | 0.00 | 46 | 1009.6 |
| 20260509140523 | 16 | 193 | 8.0 | 20.9 | 0.00 | 0.00 | 0.00 | 47 | 1009.7 |
| 20260509140025 | 16 | 182 | 8.0 | 20.9 | 0.00 | 0.00 | 0.00 | 47 | 1009.7 |
| 20260509135522 | 15 | 184 | 8.0 | 17.7 | 0.00 | 0.00 | 0.00 | 48 | 1009.7 |
| 20260509135023 | 15 | 163 | 8.0 | 17.7 | 0.00 | 0.00 | 0.00 | 47 | 1009.7 |
| 20260509134906 | 15 | 202 | 6.4 | 17.7 | 0.00 | 0.00 | 0.00 | 48 | 1009.8 |
| 20260509134358 | 15 | 185 | 4.8 | 16.1 | 0.00 | 0.00 | 0.00 | 48 | 1009.8 |
| 20260509133520 | 14 | 226 | 4.8 | 16.1 | 0.00 | 0.00 | 0.00 | 47 | 1009.8 |
| 20260509133020 | 14 | 183 | 4.8 | 12.9 | 0.00 | 0.00 | 0.00 | 46 | 1009.8 |
| 20260509132519 | 13 | 182 | 4.8 | 16.1 | 0.00 | 0.00 | 0.00 | 49 | 1009.9 |
| 20260509132020 | 13 | 185 | 4.8 | 16.1 | 0.00 | 0.00 | 0.00 | 48 | 1009.9 |
| 20260509131521 | 13 | 223 | 4.8 | 11.3 | 0.00 | 0.00 | 0.00 | 49 | 1009.9 |
| 20260509131116 | 12 | 237 | 4.8 | 12.9 | 0.00 | 0.00 | 0.00 | 53 | 1010.0 |
| 20260509131110 | 12 | 201 | 4.8 | 16.1 | 0.00 | 0.00 | 0.00 | 52 | 1010.0 |
| 20260509131046 | 13 | 165 | 6.4 | 11.3 | 0.00 | 0.00 | 0.00 | 50 | 1010.0 |
| 20260509130633 | 12 | 217 | 6.4 | 11.3 | 0.00 | 0.00 | 0.00 | 51 | 1010.0 |
| 20260509125019 | 11 | 196 | 6.4 | 16.1 | 0.00 | 0.00 | 0.00 | 52 | 1010.0 |
| 20260509124906 | 11 | 190 | 6.4 | 19.3 | 0.00 | 0.00 | 0.00 | 53 | 1010.0 |
| 20260509124402 | 11 | 246 | 6.4 | 19.3 | 0.00 | 0.00 | 0.00 | 57 | 1010.2 |
| 20260509123520 | 11 | 163 | 6.4 | 14.5 | 0.00 | 0.00 | 0.00 | 56 | 1010.2 |
| 20260509123352 | 11 | 190 | 6.4 | 16.1 | 0.00 | 0.00 | 0.00 | 55 | 1010.3 |
| 20260509122519 | 11 | 211 | 8.0 | 16.1 | 0.00 | 0.00 | 0.00 | 55 | 1010.2 |
| 20260509122020 | 10 | 222 | 8.0 | 16.1 | 0.00 | 0.00 | 0.00 | 60 | 1010.3 |
| 20260509121858 | 10 | 183 | 8.0 | 16.1 | 0.00 | 0.00 | 0.00 | 59 | 1010.3 |
| 20260509121019 | 9 | 191 | 6.4 | 16.1 | 0.00 | 0.00 | 0.00 | 61 | 1010.3 |
| 20260509120519 | 8 | 202 | 6.4 | 14.5 | 0.00 | 0.00 | 0.00 | 63 | 1010.3 |
| 20260509120020 | 8 | 192 | 6.4 | 14.5 | 0.00 | 0.00 | 0.00 | 63 | 1010.3 |
| 20260509115834 | 7 | 197 | 6.4 | 16.1 | 0.00 | 0.00 | 0.00 | 64 | 1010.4 |
| 20260509115706 | 8 | 192 | 6.4 | 14.5 | 0.00 | 0.00 | 0.00 | 63 | 1010.3 |
| 20260509114520 | 7 | 193 | 6.4 | 16.1 | 0.00 | 0.00 | 0.00 | 64 | 1010.3 |
| 20260509114019 | 7 | 176 | 4.8 | 9.7 | 0.00 | 0.00 | 0.00 | 67 | 1010.3 |
| 20260509113520 | 6 | 192 | 4.8 | 9.7 | 0.00 | 0.00 | 0.00 | 68 | 1010.4 |
| 20260509113015 | 6 | 171 | 3.2 | 8.0 | 0.00 | 0.00 | 0.00 | 68 | 1010.4 |
| 20260509112515 | 5 | 180 | 3.2 | 8.0 | 0.00 | 0.00 | 0.00 | 68 | 1010.3 |
| 20260509112347 | 5 | 169 | 3.2 | 8.0 | 0.00 | 0.00 | 0.00 | 69 | 1010.4 |
| 20260509111522 | 5 | 153 | 4.8 | 9.7 | 0.00 | 0.00 | 0.00 | 70 | 1010.3 |
| 20260509111351 | 5 | 209 | 3.2 | 9.7 | 0.00 | 0.00 | 0.00 | 71 | 1010.3 |
| 20260509110514 | 4 | 167 | 3.2 | 8.0 | 0.00 | 0.00 | 0.00 | 74 | 1010.3 |
| 20260509110017 | 3 | 153 | 3.2 | 6.4 | 0.00 | 0.00 | 0.00 | 74 | 1010.2 |
| 20260509105537 | 3 | 159 | 1.6 | 6.4 | 0.00 | 0.00 | 0.00 | 75 | 1010.2 |
| 20260509105014 | 3 | 159 | 1.6 | 3.2 | 0.00 | 0.00 | 0.00 | 76 | 1010.1 |
| 20260509104515 | 3 | 159 | 0.0 | 1.6 | 0.00 | 0.00 | 0.00 | 76 | 1010.2 |
| 20260509104015 | 3 | 159 | 0.0 | 1.6 | 0.00 | 0.00 | 0.00 | 75 | 1010.3 |
| 20260509103517 | 3 | 159 | 0.0 | 1.6 | 0.00 | 0.00 | 0.00 | 75 | 1010.3 |
| 20260509103016 | 3 | 159 | 0.0 | 3.2 | 0.00 | 0.00 | 0.00 | 75 | 1010.3 |
| 20260509102519 | 3 | 159 | 1.6 | 6.4 | 0.00 | 0.00 | 0.00 | 75 | 1010.3 |
| 20260509102021 | 3 | 159 | 1.6 | 6.4 | 0.00 | 0.00 | 0.00 | 76 | 1010.3 |
| 20260509101851 | 3 | 157 | 1.6 | 4.8 | 0.00 | 0.00 | 0.00 | 76 | 1010.3 |
| 20260509101008 | 2 | 157 | 1.6 | 11.3 | 0.00 | 0.00 | 0.00 | 75 | 1010.2 |
| 20260509100509 | 2 | 156 | 1.6 | 11.3 | 0.00 | 0.00 | 0.00 | 75 | 1010.2 |
| 20260509100007 | 2 | 187 | 3.2 | 6.4 | 0.00 | 0.00 | 0.00 | 74 | 1010.2 |
| 20260509095515 | 2 | 192 | 1.6 | 6.4 | 0.00 | 0.00 | 0.00 | 74 | 1010.1 |
| 20260509095006 | 2 | 191 | 1.6 | 4.8 | 0.00 | 0.00 | 0.00 | 73 | 1010.0 |
| 20260509094507 | 3 | 192 | 1.6 | 4.8 | 0.00 | 0.00 | 0.00 | 73 | 1010.1 |
| 20260509094008 | 3 | 184 | 1.6 | 4.8 | 0.00 | 0.00 | 0.00 | 74 | 1010.0 |
| 20260509093504 | 3 | 184 | 3.2 | 8.0 | 0.00 | 0.00 | 0.00 | 74 | 1010.0 |
| 20260509093003 | 3 | 187 | 3.2 | 9.7 | 0.00 | 0.00 | 0.00 | 74 | 1010.0 |
| 20260509092507 | 3 | 169 | 3.2 | 9.7 | 0.00 | 0.00 | 0.00 | 74 | 1010.0 |
| 20260509092016 | 3 | 182 | 3.2 | 6.4 | 0.00 | 0.00 | 0.00 | 74 | 1010.0 |
| 20260509091502 | 3 | 193 | 3.2 | 8.0 | 0.00 | 0.00 | 0.00 | 75 | 1010.0 |
| 20260509091019 | 2 | 193 | 4.8 | 8.0 | 0.00 | 0.00 | 0.00 | 75 | 1010.0 |
| 20260509090503 | 2 | 191 | 4.8 | 8.0 | 0.00 | 0.00 | 0.00 | 76 | 1010.0 |
| 20260509090004 | 2 | 182 | 3.2 | 11.3 | 0.00 | 0.00 | 0.00 | 76 | 1010.1 |
| 20260509085502 | 2 | 234 | 3.2 | 11.3 | 0.00 | 0.00 | 0.00 | 77 | 1010.1 |
| 20260509085003 | 2 | 189 | 3.2 | 6.4 | 0.00 | 0.00 | 0.00 | 76 | 1010.1 |
| 20260509084503 | 2 | 186 | 3.2 | 6.4 | 0.00 | 0.00 | 0.00 | 76 | 1010.1 |
| 20260509084002 | 2 | 186 | 3.2 | 12.9 | 0.00 | 0.00 | 0.00 | 76 | 1010.1 |
| 20260509083821 | 2 | 196 | 3.2 | 12.9 | 0.00 | 0.00 | 0.00 | 76 | 1010.0 |
| 20260509083007 | 2 | 200 | 3.2 | 8.0 | 0.00 | 0.00 | 0.00 | 76 | 1010.1 |
| 20260509082506 | 2 | 200 | 3.2 | 8.0 | 0.00 | 0.00 | 0.00 | 76 | 1010.1 |
| 20260509082001 | 2 | 193 | 3.2 | 9.7 | 0.00 | 0.00 | 0.00 | 77 | 1010.1 |
| 20260509081454 | 2 | 186 | 3.2 | 9.7 | 0.00 | 0.00 | 0.00 | 76 | 1010.1 |
| 20260509080951 | 2 | 190 | 3.2 | 6.4 | 0.00 | 0.00 | 0.00 | 76 | 1010.1 |
| 20260509080449 | 2 | 190 | 3.2 | 4.8 | 0.00 | 0.00 | 0.00 | 76 | 1010.1 |
| 20260509075947 | 2 | 190 | 3.2 | 8.0 | 0.00 | 0.00 | 0.00 | 76 | 1010.1 |
| 20260509075447 | 2 | 188 | 3.2 | 8.0 | 0.00 | 0.00 | 0.00 | 76 | 1010.1 |
| 20260509075316 | 2 | 185 | 3.2 | 6.4 | 0.00 | 0.00 | 0.00 | 76 | 1010.2 |
| 20260509074446 | 2 | 186 | 3.2 | 9.7 | 0.00 | 0.00 | 0.00 | 76 | 1010.2 |
| 20260509073946 | 2 | 182 | 3.2 | 9.7 | 0.00 | 0.00 | 0.00 | 76 | 1010.2 |
| 20260509073825 | 2 | 198 | 3.2 | 6.4 | 0.00 | 0.00 | 0.00 | 76 | 1010.3 |
| 20260509072944 | 3 | 196 | 3.2 | 4.8 | 0.00 | 0.00 | 0.00 | 76 | 1010.4 |
| 20260509072444 | 3 | 196 | 3.2 | 4.8 | 0.00 | 0.00 | 0.00 | 76 | 1010.4 |